カタログに戻る

FENGYUN 1C DEB

運用中PO
NORAD 31631·DEBRIS·🇨🇳 China

打ち上げ May 10, 1999 から Taiyuan Satellite Launch Center

Loading…

次のパス (今後24時間)

TLE

最新Source: Space-Track

元期: Sep 14, 2026, 04:10 UTC

1 31631U 99025CAM 26257.17424343  .00250440  00000-0  88546-2 0  9997
2 31631  99.3074 224.3071 0025787 142.2783 218.0265 15.27790357680849

AllMySatでFENGYUN 1C DEBをリアルタイム追跡

Download on the App Store